www.pogodaiklimat.ru

Погода и климат >> Архив погоды >> Россия >> Астраханская область >> Астрахань


АРХИВ ПОГОДЫ в Астрахани

Время (UTC), дата Ветер
(напр.,м/с)
 
Видим.   Явления Облачность Т
(С)
Тd
(С)
f
(%)
Тe
(С)
Тes
(С)
Комфортность P
(гПа)
Po
(гПа)
Тmin
(С)
Tmax
(С)
R
(мм)
R24
(мм)
S
(см)
09 9.06 СЗ 2 10 км 8/6 600 м
[Cb cap Ci fib]
+32.0 +7.1 21 +30 +37 жарко 1019.8 1022.2
12 9.06 С 2 10 км 9/5 600 м
[Cb cap Ci fib]
+32.6 +5.6 18 +30 +35 жарко 1019.0 1021.4
15 9.06 С 2 10 км 9/4 1000 м
[Cb cap Ci fib]
+31.5 +8.2 23 +30 +31 жарко 1018.4 1020.8 +33.2
18 9.06 штиль 0 10 км 3/0
[Ci fib]
+24.7 +9.8 39 +26 +26 жарко 1019.6 1022.1
21 9.06 З 1 10 км ясно +18.9 +14.0 73 +21 +21 комфорт 1019.5 1022.0
00 10.06 В 1 10 км ясно +17.2 +11.2 68 +18 +18 по сезону 1019.4 1021.9
03 10.06 СВ 1 10 км 1/0
[Ci fib]
+21.6 +11.6 53 +24 +26 комфорт 1020.2 1022.6 +16.7
06 10.06 ЮВ 3 10 км 1/0
[Ci fib]
+30.4 +8.3 25 +30 +40 жарко 1020.2 1022.6
09 10.06 СВ 3 10 км 1/0
[Ci fib]
+32.3 +3.3 16 +30 +45 жарко 1019.6 1022.0
12 10.06 В 4 10 км 1/0
[Ci fib]
+31.3 +4.7 19 +29 +37 жарко 1019.2 1021.6
15 10.06 В 4
{10}
10 км ясно +29.0 +6.3 24 +28 +29 жарко 1018.7 1021.1 +32.4
18 10.06 В 1 10 км ясно +22.3 +11.4 50 +24 +24 комфорт 1018.5 1020.9
21 10.06 СВ 1 10 км ясно +19.6 +13.7 69 +22 +22 комфорт 1018.2 1020.7
00 11.06 СВ 2 10 км ясно +18.8 +14.1 74 +20 +20 тепло 1017.3 1019.8
03 11.06 СВ 3 10 км 3/0
[Ac trans]
+21.9 +14.5 63 +25 +27 комфорт 1017.0 1019.5 +18.6
06 11.06 В 4 10 км ясно +29.2 +15.5 43 +32 +40 душно 1017.2 1019.6
09 11.06 В 4 10 км 3/1 600 м
[Cb cap Ci fib]
+33.3 +7.3 20 +32 +42 жарко 1016.5 1018.9
12 11.06 В 4
{10}
10 км 3/0
[Ci fib]
+33.3 +4.1 16 +31 +38 жарко 1015.6 1018.0
15 11.06 В 4
{10}
10 км 3/0
[Ci fib]
+31.5 +7.8 23 +30 +31 жарко 1015.3 1017.7 +33.5
18 11.06 штиль 0 10 км 4/0
[Ci fib]
+23.9 +13.8 53 +26 +26 жарко 1015.8 1018.3
21 11.06 СВ 2 10 км 1/0
[Ci fib]
+22.1 +15.6 67 +26 +26 душно 1014.5 1017.0
00 12.06 СВ 2 10 км 3/0
[Ci fib]
+21.0 +13.7 63 +24 +24 комфорт 1013.6 1016.1
03 12.06 СВ 3 10 км 8/0
[Ci fib]
+23.2 +10.3 44 +25 +27 комфорт 1014.3 1016.7 +19.9
06 12.06 СВ 3 10 км 8/1 600 м
[Cb cap Ci fib]
+31.2 +6.4 21 +30 +38 жарко 1013.8 1016.2
09 12.06 В 4 10 км 8/0
[Ac trans Ci fib]
+33.0 +8.5 22 +32 +41 жарко 1013.6 1016.0
12 12.06 ЮВ 3 10 км 9/0
[Ac trans Ci fib]
+33.8 +7.0 19 +32 +38 жарко 1012.6 1015.0
15 12.06 ЮВ 2 10 км 9/0
[Ac trans Ci fib]
+32.1 +5.6 19 +30 +31 жарко 1011.6 1014.0 +34.2
18 12.06 штиль 0 10 км 6/0
[Ci fib]
+22.9 +14.3 58 +26 +26 жарко 1011.7 1014.2
21 12.06 З 1 10 км 3/0
[Ci fib]
+20.1 +16.1 78 +24 +24 комфорт 1011.1 1013.6
00 13.06 штиль 0 10 км 4/0
[Ci fib]
+19.6 +12.5 64 +21 +21 комфорт 1010.4 1012.8
03 13.06 штиль 0 10 км 9/0
[Ci fib]
+23.4 +14.8 58 +27 +30 душно 1010.6 1013.0 +18.8
06 13.06 ЮЗ 2 10 км 4/0
[Ac trans Ci fib]
+30.5 +9.8 28 +30 +40 жарко 1010.3 1012.7
09 13.06 В 2 10 км 4/3 600 м
[Cb cap Ci fib]
+36.8 +2.8 12 +34 +46 очень
жарко
1009.9 1012.3
12 13.06 Ю 3 10 км 3/1 600 м
[Cb cap Ci fib]
+36.9 +2.3 12 +34 +42 очень
жарко
1009.1 1011.4
15 13.06 ЮВ 2 10 км 4/3 600 м
[Cb calv Ac trans Ci fib]
+34.7 +3.8 14 +32 +33 жарко 1009.0 1011.3 +37.1
18 13.06 С 6-10
{10}
10 км 6/6 600 м
[Cb calv]
+30.9 +9.2 26 +30 +30 жарко 1011.0 1013.4
21 13.06 С 5-12
{13}
10 км пыльный позёмок 8/3 600 м
[Cb calv Ac trans]
+24.9 +10.7 41 +26 +26 жарко 1013.0 1015.5
00 14.06 С 5-12
{12}
10 км пыльный позёмок 3/0
[Ci fib]
+20.8 +6.9 41 +22 +22 комфорт 1014.0 1016.5
03 14.06 С 5
{12}
10 км 3/0
[Ac trans Ci fib]
+19.0 +1.2 30 +19 +20 прохладно 1016.7 1019.2 +18.9
06 14.06 С 4
{10}
10 км 8/0
[Ac trans]
+22.2 +2.2 27 +22 +26 комфорт 1017.8 1020.2
09 14.06 СВ 5
{10}
10 км 1/0
[Ci fib]
+25.3 -0.3 19 +24 +33 комфорт 1017.5 1020.0
12 14.06 С 3
{10}
10 км 3/0
[Ci fib]
+27.2 -1.8 15 +25 +34 комфорт 1016.9 1019.3
15 14.06 С 2 10 км ясно +26.6 -3.1 14 +24 +26 комфорт 1016.1 1018.5 +27.5
18 14.06 Ю 2 10 км ясно +21.0 +5.6 37 +23 +23 комфорт 1017.0 1019.4
21 14.06 штиль 0 10 км ясно +15.3 +10.4 73 +15 +15 холодно 1016.1 1018.6
00 15.06 ЮЗ 1 10 км ясно +16.9 +12.9 77 +18 +18 по сезону 1016.1 1018.6
03 15.06 ЮЗ 2 10 км ясно +18.9 +10.0 56 +20 +22 прохладно 1016.0 1018.5 +13.7
06 15.06 ЮЗ 2 10 км ясно +26.2 +2.6 22 +25 +38 комфорт 1015.5 1017.9
09 15.06 ЮЗ 2 10 км ясно +28.8 +1.7 17 +27 +45 жарко 1014.4 1016.8
12 15.06 Ю 3 10 км ясно +30.8 +1.4 15 +28 +37 жарко 1012.5 1014.9
15 15.06 Ю 3 10 км ясно +29.5 +5.1 21 +28 +29 жарко 1011.0 1013.4 +31.1
18 15.06 Ю 2 10 км ясно +22.4 +12.4 53 +25 +25 комфорт 1011.9 1014.3
21 15.06 Ю 2 10 км 4/0
[Ci fib]
+20.2 +13.3 65 +23 +23 комфорт 1011.5 1013.9
00 16.06 Ю 3 10 км 6/0
[Ac trans Ci fib]
+19.5 +13.6 69 +21 +21 комфорт 1010.5 1013.0
03 16.06 ЮЗ 2 10 км 8/0
[Ac trans Ci fib]
+19.9 +13.6 67 +22 +24 комфорт 1010.8 1013.3 +18.4
06 16.06 ЮЗ 2 10 км 4/0
[Ci fib]
+28.2 +8.9 30 +28 +40 жарко 1010.3 1012.7

 

Местоположение метеостанции Астрахань (Астраханская область, Россия): широта 46.28 долгота 47.98 высота над уровнем моря -21 м.

В архиве по умолчанию представлена погода в Астрахани за последнюю неделю. Архивные данные за месяц целиком и за предыдущие месяцы, начиная с января 2011 года, Вы можете получить, выбрав интересующий диапазон дат из раскрывающегося списка и нажав кнопку "Ввод!".


*Определитесь, кто Вы:
робот инопланетянин человек

Внимание! Время в таблицах - всемирное. Для получения местного времени необходимо прибавить поправку, которая равна 4 ч.

Смотрите также архив погоды в соседних городах и на ближайших метеорологических станциях:

Погода в Зеленге (Астраханская область, Россия) (50 км)
Погода в Досанге (Астраханская область, Россия) (71 км)
Погода в Лимане (Астраханская область, Россия) (79 км)
Погода в Ганюшкино (Атырауская область, Казахстан) (105 км)
Погода в Лагани (Калмыкия, Россия) (109 км)
Погода в Харабали (Астраханская область, Россия) (136 км)
Погода в Утте (Калмыкия, Россия) (151 км)
Погода в Юсте (Калмыкия, Россия) (158 км)
Погода в Исатай (Атырауская область, Казахстан) (170 км)
Погода в Артезиане (Калмыкия, Россия) (177 км)

Пояснения к столбцам:

Ветер - указаны скорость ветра в м/с - средняя за 10 мин, порывы в срок и между сроками (в фигурных скобках) и направление, откуда дует ветер: С - северный, СВ - северо-восточный, В - восточный, ЮВ - юго-восточный, Ю - южный, ЮЗ - юго-западный, З - западный, СЗ - северо-западный.
Видимость - горизонтальная дальность видимости в метрах или километрах. При видимости от 1 до 10 км при отсутствии осадков обычно наблюдается дымка, при ухудшении видимости до 1 км и менее - туман. В сухую погоду видимость может ухудшаться дымом, пылью или мглою.
Явления - указаны атмосферные явления, наблюдавшиеся в срок или в последний час перед сроком; фигурными скобками обозначены явления, наблюдавшиеся между сроками (за 1-3 часа до срока); квадратными скобками обозначены град или гололедные отложения с указанием их диаметра в мм.
Облачность - указаны через наклонную черту общая и нижняя облачность в баллах и высота нижней границы облаков в метрах; квадратными скобками обозначены формы облаков: Ci - перистые, Cs - перисто-слоистые, Cc - перисто-кучевые, Ac - высококучевые, As - высокослоистые, Sc - слоисто-кучевые, Ns - слоисто-дождевые, Cu - кучевые, Cb - кучево-дождевые. Подробнее классификацию облаков см. в Атласе облаков (PDF).
T - Температура воздуха - температура, измеренная на высоте 2 м над землей.
Td - Температура точки росы - температура, при понижении до которой содержащийся в воздухе водяной пар достигнет насыщения.
f - Относительная влажность воздуха - влажноcть воздуха, измеренная на высоте 2 м над землей.
Te - Эффективная температура - температура, которую ощущает одетый по сезону человек в тени. Характеристика душности погоды. При расчете учитывается влияние влажности воздуха и скорости ветра на теплоощущения человека.
Tes - Эффективная температура на солнце - температура, которую ощущает человек, с поправкой на солнечный нагрев. Характеристика знойности погоды. Зависит от высоты солнца над горизонтом, облачности и скорости ветра. Ночью, в пасмурную погоду, а также при ветре 12 м/с и более поправка равна нулю.
P - Атмосферное давление - приведенное к уровню моря атмосферное давление.
Po - Атмосферное давление - измеренное на уровне метеостанции атмосферное давление.
Tmin - Минимальная температура - минимум температуры воздуха на высоте 2 м над землей.
Tmax - Максимальная температура - максимум температуры воздуха на высоте 2 м над землей.
R - Количество осадков - Количество выпавших осадков за период времени, мм. При наведении курсора мыши на число - период времени, за который выпало указанное количество осадков.
R24 - Количество осадков - Количество выпавших осадков за 24 часа, мм.
S - Снежный покров - Высота снежного покрова, см. При наведении курсора мыши на число - состояние снежного покрова и степень покрытия местности в баллах.